Home   Weather   Krefeld   Past weeks
Flag for Germany

Past Weather in Krefeld, North Rhine-Westphalia, Germany — Yesterday and Last 2 Weeks

Now
61 °F

Passing clouds.


Feels Like: 61 °F
Forecast: 66 / 40 °F
Wind: 6 mph from North

Location: Monchengladbach Airport

Current Time: Sep 19, 2019 at 7:18:11 pm

Latest Report: Sep 19, 2019 at 6:50 pm


Visibility: N/A

Pressure: 30.42 "Hg

Humidity: 45%

Dew Point: 39 °F

Location of KrefeldLocation

Past Weather in Krefeld — Graph

°F

Krefeld Temperature Yesterday

Maximum temperature yesterday: 64 °F (at 3:20 pm)
Minimum temperature yesterday: 39 °F (at 7:20 am)
Average temperature yesterday: 55 °F

High & Low Weather Summary for the Past Weeks

 TemperatureHumidityPressure
High77 °F (Sep 15, 3:50 pm)100% (Sep 6, 2:20 am)30.54 "Hg (Sep 6, 2:20 am)
Low37 °F (Sep 19, 7:20 am)31% (Sep 14, 5:20 pm)29.95 "Hg (Sep 4, 6:20 pm)
Average58 °F76%30.20 "Hg
* Reported Sep 4 6:20 pm — Sep 19 6:20 pm, Krefeld. Weather by CustomWeather, © 2019

Note: Actual official high and low records may vary slightly from our data, if they occured in-between our weather recording intervals... More about our weather records

Advertising

Krefeld Weather History for the Previous 24 Hours

Scroll right to see more
 ConditionsComfort  
Time TempWeatherWind HumidityBarometerVisibility
6:20 pm
Thu, Sep 19
63 °FClear.7 mph42%30.39 "Hg10 mi
5:50 pm63 °FPassing clouds.8 mph42%30.42 "HgN/A
5:20 pm63 °FPassing clouds.6 mph39%30.39 "HgN/A
4:50 pm63 °FPassing clouds.6 mph39%30.42 "HgN/A
4:20 pm63 °FPassing clouds.7 mph42%30.42 "HgN/A
3:50 pm63 °FPassing clouds.5 mph39%30.42 "HgN/A
3:20 pm63 °FPassing clouds.8 mph42%30.42 "HgN/A
2:50 pm61 °FPassing clouds.7 mph42%30.42 "HgN/A
2:20 pm63 °FClear.7 mph42%30.42 "Hg10 mi
1:50 pm61 °FPassing clouds.8 mph48%30.45 "HgN/A
1:20 pm61 °FPassing clouds.8 mph45%30.45 "HgN/A
12:50 pm61 °FPassing clouds.6 mph48%30.45 "HgN/A
12:20 pm59 °FPassing clouds.7 mph51%30.45 "HgN/A
11:50 am59 °FPassing clouds.5 mph55%30.45 "HgN/A
11:20 am57 °FPassing clouds.5 mph59%30.45 "HgN/A
10:50 am57 °FPassing clouds.5 mph63%30.45 "HgN/A
10:20 am55 °FSunny.2 mph72%30.45 "Hg10 mi
9:50 am52 °FSunny.1 mph88%30.45 "Hg10 mi
9:20 am50 °FSunny.No wind94%30.45 "Hg10 mi
8:50 am46 °FSunny.2 mph100%30.42 "Hg10 mi
7:50 am39 °FLight fog.2 mph100%30.42 "Hg1 mi
7:20 am37 °FChilly.N/A100%30.42 "HgN/A
6:50 am39 °FPassing clouds.1 mph93%30.39 "Hg1 mi
6:20 am39 °FSunny.No wind100%30.39 "Hg1 mi
5:50 am39 °FPassing clouds.No wind93%30.39 "Hg1 mi
5:20 am41 °FSunny.2 mph100%30.39 "Hg1 mi
4:50 am39 °FSunny.1 mph100%30.39 "Hg1 mi
4:20 am41 °FSunny.3 mph100%30.39 "HgN/A
3:20 am41 °FSunny.1 mph100%30.39 "HgN/A
2:50 am43 °FSunny.2 mph93%30.39 "HgN/A
2:20 am46 °FSunny.5 mph93%30.39 "HgN/A
1:50 am46 °FSunny.5 mph87%30.39 "HgN/A
1:20 am46 °FSunny.3 mph87%30.39 "HgN/A
12:50 am48 °FSunny.5 mph87%30.39 "HgN/A
12:20 am48 °FSunny.6 mph87%30.39 "HgN/A
11:50 pm
Wed, Sep 18
48 °FSunny.5 mph87%30.36 "HgN/A
11:20 pm50 °FSunny.5 mph82%30.36 "HgN/A
10:50 pm48 °FSunny.3 mph87%30.36 "HgN/A
10:20 pm48 °FClear.3 mph82%30.36 "HgN/A
9:50 pm50 °FPassing clouds.2 mph82%30.36 "HgN/A
9:20 pm54 °FPassing clouds.3 mph72%30.36 "HgN/A
8:50 pm55 °FPassing clouds.5 mph63%30.33 "HgN/A
8:20 pm57 °FClear.5 mph59%30.33 "Hg10 mi
7:50 pm59 °FPassing clouds.6 mph59%30.33 "HgN/A
7:20 pm61 °FClear.7 mph52%30.30 "Hg10 mi
Weather by CustomWeather, © 2019

See weather overview